Regional Weather Roundup
Issued by NWS Jackson, KY

Home | Current Version | Previous Version | Graphics & Text | Print | Product List | Glossary On
Versions: 1 2 3 4 5 6 7 8 9 10 11 12 13 14 15 16 17 18 19 20 21 22 23 24 25 26 27
000
ASUS43 KJKL 210210
RWRJKL

EAST KENTUCKY HOURLY WEATHER ROUNDUP
NATIONAL WEATHER SERVICE JACKSON KY
900 PM EST SAT JAN 20 2018

NOTE: "FAIR" INDICATES FEW OR NO CLOUDS BELOW 12,000 FEET WITH
NO SIGNIFICANT WEATHER AND/OR OBSTRUCTIONS TO VISIBILITY.

* THESE REPORTS ARE NOT UNDER NWS QUALITY CONTROL AND MAY NOT
  REPORT WEATHER SUCH AS PRECIPITATION AND FOG.

KYZ079-080-083-085-087-088-110-112-115-119-120-210300
...EASTERN KENTUCKY...

CITY           SKY/WX    TMP DP  RH WIND       PRES   REMARKS
JACKSON        CLOUDY    50  41  71 S5        30.17F
LONDON         CLOUDY    51  34  52 S7        30.18S
SOMERSET*        N/A     43  34  70 CALM      30.20S
MONTICELLO*      N/A     35  31  85 W9        30.21R WCI  28
WILLIAMSBURG*  CLOUDY    50  32  50 SE6       30.20R
MIDDLESBORO*   CLOUDY    41  35  78 CALM      30.23S
HARLAN APT*    CLOUDY    43  32  65 CALM      30.22R
PIKE CO APT*   CLOUDY    50  37  62 CALM      30.18S
BIG SANDY APT* CLOUDY    52  40  64 SW3       30.18S
MOREHEAD APT*  CLOUDY    50  43  76 SW10      30.17S
ASHLAND*       CLOUDY    39  34  82 E5        30.16S
$$

KYZ035-036-041-042-044-050-067-078-099-210300
...CENTRAL KENTUCKY...

CITY           SKY/WX    TMP DP  RH WIND       PRES   REMARKS
MT STERLING*   CLOUDY    48  45  87 SW7       30.17S
FLEMING/MASON* CLOUDY    44  39  82 SW8       30.16R
DANVILLE*      CLOUDY    45  41  87 S3        30.18S
LEXINGTON      CLOUDY    48  43  82 S7        30.14F
FRANKFORT      CLOUDY    48  42  80 S6        30.13S
LOUISVILLE     DRIZZLE   49  43  80 S9        30.12F
LEBANON*         N/A     48  41  76 S9        30.16S
GLASGOW*       CLOUDY    52  34  51 S3        30.16S
BOWLING GREEN  CLOUDY    53  38  56 S8        30.15S
$$

KYZ091>093-OHZ055-061-077-WVZ005-015-034-035-042-210300
...SOUTHERN OHIO/WEST VIRGINIA...

CITY           SKY/WX    TMP DP  RH WIND       PRES   REMARKS
COVINGTON      CLOUDY    44  43  96 S7        30.11S
COLUMBUS       CLOUDY    42  31  64 S7        30.10S
DAYTON         CLOUDY    43  34  70 S8        30.10R
WILMINGTON     CLOUDY    40  34  79 SW9       30.10R WCI  34
HUNTINGTON     CLOUDY    48  36  63 S5        30.15S
CHARLESTON     CLOUDY    46  38  73 CALM      30.16R
BECKLEY        CLOUDY    45  35  68 SW7       30.17R
BLUEFIELD      MOCLDY    43  35  73 W9        30.19R
LOGAN CO APT*  CLOUDY    48  37  66 CALM      30.17R
$$

VAZ002-007-008-TNZ017-027-036-066-071-210300
...SOUTHWEST VIRGINIA/EAST TENNESSEE...

CITY           SKY/WX    TMP DP  RH WIND       PRES   REMARKS
WISE*            N/A     41  34  75 SW9       30.21S
JONESVILLE*    MOCLDY    37  32  81 CALM      30.25S
ABINGDON*      CLOUDY    39  34  80 CALM      30.22F
BRISTOL        CLOUDY    42  36  79 CALM      30.23S
MORRISTOWN*    MOCLDY    43  32  65 CALM      30.22S
SEVIERVILLE*   CLOUDY    45  39  81 CALM      30.23S
KNOXVILLE        N/A     43  36  76 CALM      30.22S
LAFOLLETTE*    CLOUDY    41  34  75 CALM      30.26R
OAK RIDGE        N/A     39  33  79 CALM      30.24R
CROSSVILLE       N/A     47  32  56 S5        30.21S
NASHVILLE      CLOUDY    56  36  47 S8        30.17S
$$

...KEY TO REMARKS...
VSB - VISIBILITY IN MILES
WCI - WIND CHILL INDEX
HX  - HEAT INDEX

$$




USA.gov is the U.S. government's official web portal to all federal, state and local government web resources and services.